www.pogodaiklimat.ru

Погода и климат >> Архив погоды >> Таиланд >> Бангкок


АРХИВ ПОГОДЫ в Бангкоке

Время (UTC), дата Ветер
(напр.,м/с)
 
Видим.   Явления Облачность Т
(С)
Тd
(С)
f
(%)
Тe
(С)
Тes
(С)
Комфортность P
(гПа)
Po
(гПа)
Тmin
(С)
Tmax
(С)
R
(мм)
R24
(мм)
S
(см)
00 16.04 штиль 0 10 км 8/3 600 м
[Cu hum Ac lent Cs]
+29.6 +27.4 88 +48 +48 опасность
перегрева
1008.6 1008.1 +29.5
03 16.04 штиль 0 10 км 6/0
[Cs]
+33.3 +27.8 73 +53 +72 опасность
перегрева
1009.8 1009.3
06 16.04 ЮЗ 5 10 км 6/0
[Cs]
+35.0 +27.9 67 +56 +66 опасность
перегрева
1008.0 1007.6
09 16.04 ЮВ 2 10 км 6/0
[Cs]
+35.7 +26.9 61 +54 +60 опасность
перегрева
1005.1 1004.7
12 16.04 штиль 0 10 км 6/0
[Cs]
+30.6 +27.0 81 +48 +48 опасность
перегрева
1007.4 1006.9 +37.2
15 16.04 штиль 0 10 км 3/0
[Cs]
+30.5 +27.0 82 +48 +48 опасность
перегрева
1009.4 1008.9
18 16.04 штиль 0 10 км 3/0
[Cs]
+29.8 +27.7 89 +49 +49 опасность
перегрева
1010.1 1009.7
21 16.04 штиль 0 10 км 3/0
[Cs]
+29.5 +27.7 90 +48 +48 опасность
перегрева
1007.8 1007.3
00 17.04 ЮВ 3 10 км 6/3 600 м
[Cu hum As op Cs]
+29.8 +27.2 86 +47 +48 опасность
перегрева
1008.7 1008.2 +29.0
03 17.04 ЮВ 5 10 км 8/3 600 м
[Cu hum Ac lent Cs]
+33.5 +28.0 73 +54 +58 опасность
перегрева
1009.8 1009.3
06 17.04 ЮЗ 4 10 км 6/0
[Cs]
+36.0 +27.8 63 +56 +69 опасность
перегрева
1009.1 1008.6
09 17.04 ЮВ 2 10 км 3/0
[Cs]
+36.5 +25.3 53 +51 +58 опасность
перегрева
1005.2 1004.7
12 17.04 штиль 0 10 км 3/0
[Cs]
+32.3 +27.8 77 +52 +52 опасность
перегрева
1006.1 1005.6 +37.3
15 17.04 штиль 0 10 км 3/0
[Cs]
+30.8 +28.3 87 +52 +52 опасность
перегрева
1008.8 1008.3
18 17.04 штиль 0 10 км 3/0
[Cs]
+30.2 +28.1 89 +50 +50 опасность
перегрева
1007.5 1007.0
21 17.04 штиль 0 10 км 3/0
[Cs]
+30.3 +28.2 89 +51 +51 опасность
перегрева
1006.6 1006.1
00 18.04 штиль 0 10 км 3/0
[Cs]
+31.0 +26.5 77 +47 +49 опасность
перегрева
1008.2 1007.7 +29.8
03 18.04 штиль 0 10 км 8/3 600 м
[Cu hum Ac lent Cs]
+33.8 +28.7 75 +57 +66 опасность
перегрева
1008.6 1008.1
06 18.04 ЮЗ 5 10 км 8/3 600 м
[Cu hum Ac lent Cs]
+35.5 +28.3 66 +57 +62 опасность
перегрева
1006.8 1006.3
09 18.04 Ю 3 10 км 3/0
[Cs]
+35.8 +28.4 66 +58 +64 опасность
перегрева
1003.9 1003.4
12 18.04 Ю 3 10 км 3/0
[Cs]
+31.8 +28.7 84 +54 +54 опасность
перегрева
1005.8 1005.3 +37.2
15 18.04 штиль 0 10 км 3/0
[Cs]
+30.8 +28.1 86 +51 +51 опасность
перегрева
1007.9 1007.4
18 18.04 штиль 0 10 км 3/0
[Cs]
+30.5 +28.4 89 +52 +52 опасность
перегрева
1007.5 1007.0
21 18.04 штиль 0 10 км 3/0
[Cs]
+30.3 +28.5 90 +51 +51 опасность
перегрева
1005.6 1005.2
00 19.04 штиль 0 10 км 3/0
[Cs]
+30.1 +27.3 85 +48 +49 опасность
перегрева
1006.3 1005.8 +28.9
03 19.04 штиль 0 10 км 6/0
[Ac lent Cs]
+34.2 +26.4 64 +51 +65 опасность
перегрева
1008.1 1007.6
06 19.04 ЮВ 3 10 км 3/0
[Cs]
+35.7 +27.7 63 +55 +72 опасность
перегрева
1006.5 1006.1
09 19.04 З 2 10 км 3/0
[Cs]
+36.0 +27.4 61 +55 +62 опасность
перегрева
1003.1 1002.6
12 19.04 штиль 0 10 км 3/0
[Cs]
+33.2 +27.4 72 +52 +52 опасность
перегрева
1004.6 1004.2 +37.5
15 19.04 штиль 0 10 км 3/0
[Cs]
+31.0 +28.7 88 +53 +53 опасность
перегрева
1006.8 1006.3
18 19.04 штиль 0 10 км 3/0
[Cs]
+30.6 +28.7 90 +53 +53 опасность
перегрева
1006.3 1005.8
21 19.04 штиль 0 10 км 3/0
[Cs]
+30.0 +28.6 92 +51 +51 опасность
перегрева
1004.6 1004.1
00 20.04 штиль 0 10 км 3/0
[Cs]
+30.0 +27.8 88 +49 +51 опасность
перегрева
1005.3 1004.9 +29.0
03 20.04 ЮВ 3 10 км 3/0
[Cs]
+34.5 +26.3 62 +51 +63 опасность
перегрева
1007.2 1006.8
06 20.04 ЮЗ 4 10 км 3/0
[Cs]
+35.8 +27.3 62 +55 +68 опасность
перегрева
1005.5 1005.0
09 20.04 ЮВ 4 10 км 3/0
[Cs]
+37.0 +27.5 58 +56 +61 опасность
перегрева
1002.6 1002.1
12 20.04 штиль 0 10 км 3/0
[Cs]
+33.3 +27.0 70 +52 +52 опасность
перегрева
1002.0 1001.6 +39.7
15 20.04 штиль 0 10 км ясно +31.2 +27.6 81 +50 +50 опасность
перегрева
1004.7 1004.2
18 20.04 штиль 0 10 км 3/0
[Cs]
+30.8 +27.2 81 +49 +49 опасность
перегрева
1004.0 1003.5
21 20.04 штиль 0 10 км ясно +30.4 +27.2 83 +48 +48 опасность
перегрева
1003.0 1002.5
00 21.04 штиль 0 10 км 6/0
[Cs]
+30.6 +27.7 85 +50 +51 опасность
перегрева
1004.6 1004.1 +30.2
03 21.04 ЮВ 2 10 км 6/0
[Cs]
+34.5 +28.4 71 +57 +70 опасность
перегрева
1006.2 1005.7
06 21.04 З 5 10 км 6/3 600 м
[Cu hum Cs]
+37.4 +28.1 59 +58 +65 опасность
перегрева
1005.5 1005.0
09 21.04 ЮВ 3 10 км 4/0
[Cs]
+37.0 +25.9 53 +52 +58 опасность
перегрева
1002.6 1002.1
12 21.04 ЮВ 1 10 км 4/0
[Cs]
+33.5 +27.0 69 +52 +52 опасность
перегрева
1003.4 1002.9 +38.6
15 21.04 В 1 10 км 4/0
[Cs]
+32.0 +25.2 67 +46 +46 опасность
перегрева
1005.2 1004.7
18 21.04 ЮВ 1 10 км 4/0
[Cs]
+31.0 +25.4 72 +45 +45 опасность
перегрева
1004.2 1003.7
21 21.04 штиль 0 10 км 4/0
[Cs]
+30.4 +25.3 74 +44 +44 опасность
перегрева
1004.1 1003.6
00 22.04 штиль 0 10 км 4/1 600 м
[Cu hum Cs]
+30.5 +26.2 78 +46 +48 опасность
перегрева
1006.0 1005.5 +30.4
03 22.04 ЮВ 1 10 км 6/3 600 м
[Cu med, cong Cs]
+34.0 +26.2 64 +50 +62 опасность
перегрева
1007.2 1006.7
06 22.04 ЮВ 5 10 км 6/3 600 м
[Cu med, cong Cs]
+36.5 +25.8 54 +51 +59 опасность
перегрева
1006.3 1005.9
09 22.04 З 2 10 км 6/1 600 м
[Cu hum Ac trans Cs]
+35.6 +24.6 53 +48 +53 опасность
перегрева
1003.5 1003.0
12 22.04 ЮВ 2 10 км 8/3 600 м
[Cu med, cong Ac und Cs]
+31.9 +27.1 76 +50 +50 опасность
перегрева
1004.7 1004.3 +37.6
15 22.04 штиль 0 10 км 8/3 600 м
[Cu med, cong Cs]
+31.0 +26.2 76 +47 +47 опасность
перегрева
1008.2 1007.7
18 22.04 З 1 7000 м гроза, ливневой дождь 10/4 300 м
[Cb cap Ac As]
+26.5 +24.3 88 +37 +37 очень
душно
1008.9 1008.4 21
21 22.04 СЗ 3 10 км {гроза} 9/3 600 м
[Cu med, cong Ac As Cs]
+27.3 +25.2 88 +39 +39 очень
душно
1008.3 1007.8 2

 

Местоположение метеостанции Бангкок (Таиланд): широта 13.73 долгота 100.56 высота над уровнем моря 4 м.

В архиве по умолчанию представлена погода в Бангкоке за последнюю неделю. Архивные данные за месяц целиком и за предыдущие месяцы, начиная с января 2011 года, Вы можете получить, выбрав интересующий диапазон дат из раскрывающегося списка и нажав кнопку "Ввод!".


*Определитесь, кто Вы:
робот инопланетянин человек

Внимание! Время в таблицах - всемирное. Для получения местного времени необходимо прибавить поправку, которая равна 7 ч.

Смотрите также архив погоды в соседних городах и на ближайших метеорологических станциях:

Погода в Бангкоке 2 (Таиланд) (4 км)
Погода в Бангна Агромете (Таиланд) (9 км)
Погода в Дон Муанг (Таиланд) (22 км)
Погода в Аэропорту Суварнабхуми (Таиланд) (22 км)
Погода в Самутрудкан Агромете (Таиланд) (31 км)
Погода в Бангкок Пилот (Таиланд) (39 км)
Погода в Патхумтхани (Таиланд) (42 км)
Погода в Чонбури (Таиланд) (61 км)
Погода в Ратбури (Таиланд) (61 км)
Погода в Самутсонгкхраме (Таиланд) (67 км)

Пояснения к столбцам:

Ветер - указаны скорость ветра в м/с - средняя за 10 мин, порывы в срок и между сроками (в фигурных скобках) и направление, откуда дует ветер: С - северный, СВ - северо-восточный, В - восточный, ЮВ - юго-восточный, Ю - южный, ЮЗ - юго-западный, З - западный, СЗ - северо-западный.
Видимость - горизонтальная дальность видимости в метрах или километрах. При видимости от 1 до 10 км при отсутствии осадков обычно наблюдается дымка, при ухудшении видимости до 1 км и менее - туман. В сухую погоду видимость может ухудшаться дымом, пылью или мглою.
Явления - указаны атмосферные явления, наблюдавшиеся в срок или в последний час перед сроком; фигурными скобками обозначены явления, наблюдавшиеся между сроками (за 1-3 часа до срока); квадратными скобками обозначены град или гололедные отложения с указанием их диаметра в мм.
Облачность - указаны через наклонную черту общая и нижняя облачность в баллах и высота нижней границы облаков в метрах; квадратными скобками обозначены формы облаков: Ci - перистые, Cs - перисто-слоистые, Cc - перисто-кучевые, Ac - высококучевые, As - высокослоистые, Sc - слоисто-кучевые, Ns - слоисто-дождевые, Cu - кучевые, Cb - кучево-дождевые. Подробнее классификацию облаков см. в Атласе облаков (PDF).
T - Температура воздуха - температура, измеренная на высоте 2 м над землей.
Td - Температура точки росы - температура, при понижении до которой содержащийся в воздухе водяной пар достигнет насыщения.
f - Относительная влажность воздуха - влажноcть воздуха, измеренная на высоте 2 м над землей.
Te - Эффективная температура - температура, которую ощущает одетый по сезону человек в тени. Характеристика душности погоды. При расчете учитывается влияние влажности воздуха и скорости ветра на теплоощущения человека.
Tes - Эффективная температура на солнце - температура, которую ощущает человек, с поправкой на солнечный нагрев. Характеристика знойности погоды. Зависит от высоты солнца над горизонтом, облачности и скорости ветра. Ночью, в пасмурную погоду, а также при ветре 12 м/с и более поправка равна нулю.
P - Атмосферное давление - приведенное к уровню моря атмосферное давление.
Po - Атмосферное давление - измеренное на уровне метеостанции атмосферное давление.
Tmin - Минимальная температура - минимум температуры воздуха на высоте 2 м над землей.
Tmax - Максимальная температура - максимум температуры воздуха на высоте 2 м над землей.
R - Количество осадков - Количество выпавших осадков за период времени, мм. При наведении курсора мыши на число - период времени, за который выпало указанное количество осадков.
R24 - Количество осадков - Количество выпавших осадков за 24 часа, мм.
S - Снежный покров - Высота снежного покрова, см. При наведении курсора мыши на число - состояние снежного покрова и степень покрытия местности в баллах.